QFA439 YSSY-RJTT

Flight info

Callsign QFA439
Flight time N/A
Altitude 32000
Route RIC H530 KABIX/N0489F310 DCT UPTOD DCT 2752S14804E/N0492F320 2318S14829E DCT NONIR/N0492F340 DCT APISO DCT PY B586 PIKOK/N0486F360 DCT 02N145E 05N144E 10N143E 15N142E 20N141E/N0480F370 25N141E/N0476F380 UKATA B586 CADDY/N0476F370 T871 TOPIT Y875 AROSA
Aircraft A333/H-SDE3GHIJ2J3J5M1RVWXY/LB2D1

Departure

Time 2026-05-05 08:45
Airport Sydney Kingsford Smith International Airport (YSSY)

Arrival

Time N/A
Airport Tokyo Haneda International Airport (RJTT)
Time Latitude Longitude Altitude Speed Heading
2026-05-05 07:14 -33.93479 151.16793 34 ft 0 kts 258°
2026-05-05 08:33 -33.93477 151.16805 34 ft 3 kts 263°
2026-05-05 08:33 -33.93476 151.16832 32 ft 3 kts 278°
2026-05-05 08:33 -33.93480 151.16859 32 ft 3 kts 275°
2026-05-05 08:33 -33.93478 151.16881 30 ft 3 kts 237°
2026-05-05 08:34 -33.93464 151.16900 31 ft 3 kts 204°
2026-05-05 08:34 -33.93443 151.16906 32 ft 3 kts 173°
2026-05-05 08:34 -33.93434 151.16904 33 ft 2 kts 167°
2026-05-05 08:34 -33.93449 151.16908 32 ft 1 kts 167°
2026-05-05 08:37 -33.93462 151.16911 31 ft 4 kts 167°
2026-05-05 08:37 -33.93503 151.16935 32 ft 8 kts 140°
2026-05-05 08:37 -33.93511 151.16984 33 ft 7 kts 82°
2026-05-05 08:38 -33.93497 151.17058 33 ft 11 kts 68°
2026-05-05 08:38 -33.93423 151.17083 33 ft 14 kts 348°
2026-05-05 08:38 -33.93320 151.17038 33 ft 18 kts 326°
2026-05-05 08:38 -33.93215 151.16953 33 ft 18 kts 347°
2026-05-05 08:39 -33.93101 151.16922 34 ft 16 kts 348°
2026-05-05 08:39 -33.93019 151.16911 34 ft 11 kts
2026-05-05 08:39 -33.92981 151.16972 34 ft 9 kts 73°
2026-05-05 08:39 -33.92969 151.17032 34 ft 5 kts 77°
2026-05-05 08:40 -33.92969 151.17034 34 ft 0 kts 77°
2026-05-05 08:42 -33.92969 151.17036 34 ft 1 kts 77°
2026-05-05 08:42 -33.92961 151.17087 34 ft 12 kts 82°
2026-05-05 08:42 -33.92992 151.17171 34 ft 11 kts 155°
2026-05-05 08:43 -33.93016 151.17179 34 ft 0 kts 168°
2026-05-05 08:44 -33.93027 151.17182 34 ft 7 kts 167°
2026-05-05 08:44 -33.93199 151.17227 35 ft 52 kts 167°
2026-05-05 08:44 -33.93741 151.17367 30 ft 105 kts 167°
2026-05-05 08:45 -33.94612 151.17595 34 ft 149 kts 168°
2026-05-05 08:45 -33.95724 151.17886 243 ft 168 kts 168°
2026-05-05 08:45 -33.96848 151.18168 872 ft 163 kts 173°
2026-05-05 08:45 -33.97953 151.18102 1421 ft 161 kts 187°
2026-05-05 08:46 -33.99085 151.17944 1679 ft 169 kts 187°
2026-05-05 08:46 -34.00300 151.17784 1838 ft 181 kts 186°
2026-05-05 08:46 -34.01598 151.17633 2005 ft 195 kts 185°
2026-05-05 08:46 -34.03009 151.17661 2136 ft 213 kts 172°
2026-05-05 08:47 -34.04513 151.18070 2320 ft 230 kts 166°
2026-05-05 08:47 -34.06115 151.18604 2500 ft 247 kts 166°
2026-05-05 08:47 -34.07781 151.19174 3008 ft 250 kts 165°
2026-05-05 08:47 -34.09461 151.19746 3595 ft 251 kts 166°
2026-05-05 08:48 -34.11151 151.20316 4185 ft 253 kts 166°
2026-05-05 08:48 -34.12858 151.20889 4743 ft 257 kts 166°
2026-05-05 08:48 -34.14588 151.21468 5364 ft 259 kts 166°
2026-05-05 08:48 -34.16334 151.22052 5940 ft 262 kts 166°
2026-05-05 08:49 -34.18139 151.22503 6437 ft 267 kts 178°
2026-05-05 08:49 -34.19989 151.22264 6927 ft 270 kts 200°
2026-05-05 08:49 -34.21599 151.21162 7548 ft 267 kts 222°
2026-05-05 08:49 -34.22899 151.19554 8137 ft 269 kts 229°
2026-05-05 08:50 -34.24109 151.17827 8782 ft 269 kts 233°
2026-05-05 08:50 -34.25082 151.15891 9376 ft 271 kts 248°
2026-05-05 08:50 -34.25467 151.13651 9892 ft 277 kts 269°
2026-05-05 08:50 -34.25208 151.11312 10291 ft 288 kts 281°
2026-05-05 08:51 -34.24694 151.08918 10588 ft 300 kts 285°
2026-05-05 08:51 -34.23795 151.06607 11006 ft 310 kts 303°
2026-05-05 08:51 -34.22227 151.04800 11496 ft 319 kts 327°
2026-05-05 08:51 -34.20140 151.03827 12021 ft 326 kts 344°
2026-05-05 08:52 -34.17904 151.03276 12539 ft 329 kts 347°
2026-05-05 08:52 -34.15635 151.02786 13044 ft 333 kts 347°
2026-05-05 08:52 -34.13373 151.02293 13546 ft 336 kts 347°
2026-05-05 08:52 -34.11077 151.01716 14046 ft 338 kts 343°
2026-05-05 08:53 -34.08795 151.01000 14517 ft 340 kts 342°
2026-05-05 08:53 -34.06511 151.00250 15014 ft 341 kts 342°
2026-05-05 08:53 -34.04214 150.99490 15460 ft 344 kts 342°
2026-05-05 08:53 -34.01873 150.98715 15946 ft 345 kts 342°
2026-05-05 08:54 -33.99583 150.97951 16432 ft 346 kts 340°
2026-05-05 08:54 -33.97318 150.96967 16812 ft 349 kts 335°
2026-05-05 08:54 -33.95043 150.95816 16996 ft 359 kts 334°
2026-05-05 08:54 -33.92715 150.94606 17147 ft 370 kts 334°
2026-05-05 08:55 -33.90323 150.93365 17338 ft 379 kts 334°
2026-05-05 08:55 -33.87872 150.92097 17553 ft 388 kts 334°
2026-05-05 08:55 -33.85363 150.90803 17710 ft 397 kts 334°
2026-05-05 08:55 -33.82798 150.89482 17863 ft 406 kts 334°
2026-05-05 08:56 -33.80176 150.88134 18089 ft 412 kts 335°
2026-05-05 08:56 -33.77523 150.86772 18401 ft 416 kts 335°
2026-05-05 08:56 -33.74857 150.85406 18747 ft 417 kts 335°
2026-05-05 08:56 -33.72186 150.84037 19105 ft 418 kts 335°
2026-05-05 08:57 -33.69504 150.82663 19469 ft 419 kts 335°
2026-05-05 08:57 -33.66817 150.81287 19827 ft 420 kts 335°
2026-05-05 08:57 -33.64120 150.79907 20177 ft 422 kts 335°
2026-05-05 08:57 -33.61434 150.78482 20510 ft 422 kts 331°
2026-05-05 08:58 -33.58951 150.76630 20847 ft 421 kts 321°
2026-05-05 08:58 -33.56699 150.74392 21179 ft 421 kts 316°
2026-05-05 08:58 -33.54551 150.71993 21500 ft 422 kts 314°
2026-05-05 08:58 -33.52458 150.69521 21801 ft 423 kts 313°
2026-05-05 08:59 -33.50377 150.67023 22138 ft 424 kts 313°
2026-05-05 08:59 -33.48286 150.64521 22487 ft 425 kts 313°
2026-05-05 08:59 -33.46183 150.62030 22796 ft 426 kts 314°
2026-05-05 08:59 -33.44059 150.59542 23119 ft 428 kts 314°
2026-05-05 09:00 -33.41947 150.57088 23433 ft 429 kts 314°
2026-05-05 09:00 -33.39795 150.54600 23749 ft 430 kts 314°
2026-05-05 09:00 -33.37637 150.52113 24022 ft 431 kts 314°
2026-05-05 09:00 -33.35477 150.49627 24307 ft 431 kts 314°
2026-05-05 09:01 -33.33313 150.47138 24585 ft 432 kts 314°
2026-05-05 09:01 -33.31144 150.44646 24839 ft 433 kts 314°
2026-05-05 09:01 -33.28968 150.42147 25082 ft 434 kts 314°
2026-05-05 09:01 -33.26791 150.39646 25346 ft 435 kts 314°
2026-05-05 09:02 -33.24611 150.37143 25614 ft 435 kts 314°
2026-05-05 09:02 -33.22430 150.34640 25877 ft 435 kts 314°
2026-05-05 09:02 -33.20244 150.32133 26120 ft 436 kts 314°
2026-05-05 09:02 -33.18056 150.29627 26406 ft 436 kts 314°
2026-05-05 09:03 -33.15867 150.27121 26664 ft 436 kts 314°
2026-05-05 09:03 -33.13681 150.24620 26885 ft 437 kts 314°
2026-05-05 09:03 -33.11482 150.22107 27121 ft 437 kts 314°
2026-05-05 09:03 -33.09284 150.19596 27373 ft 438 kts 314°
2026-05-05 09:04 -33.07085 150.17085 27614 ft 438 kts 314°
2026-05-05 09:04 -33.04882 150.14571 27817 ft 439 kts 314°
2026-05-05 09:04 -33.02670 150.12048 27996 ft 441 kts 314°
2026-05-05 09:04 -33.00449 150.09519 28222 ft 441 kts 314°
2026-05-05 09:05 -32.98231 150.06994 28439 ft 442 kts 314°
2026-05-05 09:05 -32.96005 150.04462 28656 ft 442 kts 314°
2026-05-05 09:05 -32.93778 150.01931 28886 ft 443 kts 314°
2026-05-05 09:05 -32.91551 149.99402 29154 ft 442 kts 314°
2026-05-05 09:06 -32.89330 149.96882 29497 ft 440 kts 314°
2026-05-05 09:06 -32.87122 149.94378 29842 ft 437 kts 314°
2026-05-05 09:06 -32.84961 149.91930 30302 ft 432 kts 314°
2026-05-05 09:06 -32.82768 149.89448 30669 ft 428 kts 314°
2026-05-05 09:07 -32.80614 149.87011 30924 ft 427 kts 314°
2026-05-05 09:07 -32.78462 149.84577 31126 ft 427 kts 314°
2026-05-05 09:07 -32.76341 149.82180 31326 ft 426 kts 314°
2026-05-05 09:07 -32.74193 149.79753 31545 ft 425 kts 314°
2026-05-05 09:08 -32.72052 149.77337 31785 ft 424 kts 314°
2026-05-05 09:08 -32.69912 149.74924 32011 ft 423 kts 314°
2026-05-05 09:08 -32.67784 149.72525 32233 ft 422 kts 314°
2026-05-05 09:08 -32.65656 149.70129 32467 ft 421 kts 314°
2026-05-05 09:09 -32.63532 149.67739 32670 ft 420 kts 314°
2026-05-05 09:09 -32.61417 149.65362 32902 ft 419 kts 314°
2026-05-05 09:09 -32.59308 149.62991 33110 ft 417 kts 314°
2026-05-05 09:09 -32.57210 149.60616 33303 ft 416 kts 313°
2026-05-05 09:10 -32.55264 149.58086 33467 ft 415 kts 309°
2026-05-05 09:10 -32.53389 149.55471 33571 ft 416 kts 309°
2026-05-05 09:10 -32.51547 149.52837 33830 ft 413 kts 308°
2026-05-05 09:10 -32.49733 149.50209 34100 ft 411 kts 308°
2026-05-05 09:11 -32.47933 149.47589 34279 ft 410 kts 308°
2026-05-05 09:11 -32.46138 149.44974 34386 ft 410 kts 308°
2026-05-05 09:11 -32.44336 149.42355 34473 ft 410 kts 308°
2026-05-05 09:11 -32.42531 149.39739 34578 ft 410 kts 308°
2026-05-05 09:12 -32.40722 149.37123 34702 ft 410 kts 308°
2026-05-05 09:12 -32.38917 149.34518 34812 ft 410 kts 308°
2026-05-05 09:12 -32.37106 149.31906 34936 ft 410 kts 308°
2026-05-05 09:12 -32.35300 149.29304 35038 ft 410 kts 308°
2026-05-05 09:13 -32.33492 149.26701 35142 ft 410 kts 308°
2026-05-05 09:13 -32.31682 149.24097 35266 ft 410 kts 308°
2026-05-05 09:13 -32.29873 149.21496 35351 ft 410 kts 308°
2026-05-05 09:14 -32.26866 149.17176 35506 ft 410 kts 308°
2026-05-05 09:14 -32.25054 149.14575 35608 ft 410 kts 308°
2026-05-05 09:14 -32.23242 149.11976 35698 ft 410 kts 308°
2026-05-05 09:15 -32.19619 149.06784 35898 ft 409 kts 308°
2026-05-05 09:15 -32.15994 149.01598 36041 ft 410 kts 308°
2026-05-05 09:16 -32.12361 148.96407 36199 ft 410 kts 308°
2026-05-05 09:16 -32.08722 148.91214 36213 ft 410 kts 308°
2026-05-05 09:17 -32.04615 148.86541 36215 ft 413 kts 320°
2026-05-05 09:17 -31.99888 148.82662 36215 ft 415 kts 323°
2026-05-05 09:18 -31.95043 148.78948 36215 ft 415 kts 323°
2026-05-05 09:18 -31.90191 148.75260 36222 ft 415 kts 323°
2026-05-05 09:19 -31.85335 148.71548 36215 ft 417 kts 323°
2026-05-05 09:19 -31.80478 148.67821 36213 ft 417 kts 323°
2026-05-05 09:20 -31.75654 148.64121 36208 ft 417 kts 323°
2026-05-05 09:20 -31.70791 148.60395 36211 ft 417 kts 323°
2026-05-05 09:21 -31.65927 148.56675 36212 ft 417 kts 323°
2026-05-05 09:21 -31.61061 148.52958 36211 ft 417 kts 323°
2026-05-05 09:22 -31.56195 148.49246 36209 ft 417 kts 323°
2026-05-05 09:22 -31.51333 148.45541 36204 ft 417 kts 323°
2026-05-05 09:23 -31.46475 148.41845 36206 ft 416 kts 323°
2026-05-05 09:23 -31.41621 148.38156 36203 ft 416 kts 323°
2026-05-05 09:24 -31.36780 148.34481 36204 ft 416 kts 323°
2026-05-05 09:24 -31.31925 148.30801 36205 ft 416 kts 323°
2026-05-05 09:25 -31.27072 148.27127 36200 ft 416 kts 323°
2026-05-05 09:25 -31.22217 148.23455 36202 ft 415 kts 323°
2026-05-05 09:26 -31.17376 148.19800 36200 ft 413 kts 323°
2026-05-05 09:26 -31.12548 148.16157 36200 ft 414 kts 323°
2026-05-05 09:27 -31.07728 148.12526 36200 ft 415 kts 323°
2026-05-05 09:27 -31.02872 148.08872 36200 ft 415 kts 323°
2026-05-05 09:28 -30.98018 148.05225 36203 ft 415 kts 323°
2026-05-05 09:28 -30.93162 148.01580 36187 ft 415 kts 323°
2026-05-05 09:29 -30.88322 147.97953 36195 ft 412 kts 323°
2026-05-05 09:29 -30.83510 147.94351 36206 ft 411 kts 323°
2026-05-05 09:30 -30.78705 147.90757 36209 ft 412 kts 323°
2026-05-05 09:30 -30.73872 147.87145 36203 ft 414 kts 324°
2026-05-05 09:31 -30.69022 147.83527 36196 ft 414 kts 324°
2026-05-05 09:31 -30.64169 147.79911 36194 ft 414 kts 324°
2026-05-05 09:32 -30.59325 147.76308 36194 ft 412 kts 324°
2026-05-05 09:32 -30.54511 147.72731 36200 ft 411 kts 324°
2026-05-05 09:33 -30.49695 147.69155 36195 ft 411 kts 324°
2026-05-05 09:33 -30.44909 147.65605 36193 ft 411 kts 324°
2026-05-05 09:34 -30.40087 147.62033 36195 ft 412 kts 324°
2026-05-05 09:34 -30.35232 147.58472 36201 ft 414 kts 326°
2026-05-05 09:35 -30.29896 147.55848 36195 ft 422 kts 340°
2026-05-05 09:35 -30.24002 147.55126 36199 ft 435 kts 356°
2026-05-05 09:35 -30.20967 147.55546 36195 ft 441 kts
2026-05-05 09:36 -30.14902 147.56857 36195 ft 445 kts
2026-05-05 09:36 -30.08832 147.58315 36180 ft 445 kts